2023-12-26T00:00:00,rvs,12.38
2023-12-26T00:01:00,rvs,11.80
2023-12-26T00:02:00,rvs,11.45
2023-12-26T00:03:00,rvs,12.20
2023-12-26T00:04:00,rvs,7.55
2023-12-26T00:05:00,rvs,7.58
2023-12-26T00:06:00,rvs,7.94
2023-12-26T00:07:00,rvs,7.61
2023-12-26T00:08:00,rvs,8.54
2023-12-26T00:09:00,rvs,8.21
2023-12-26T00:10:00,rvs,9.18
2023-12-26T00:11:00,rvs,12.90
2023-12-26T00:12:00,rvs,13.69
2023-12-26T00:13:00,rvs,14.67
2023-12-26T00:14:00,rvs,13.87
2023-12-26T00:15:00,rvs,12.08
2023-12-26T00:16:00,rvs,11.43
2023-12-26T00:17:00,rvs,10.57
2023-12-26T00:18:00,rvs,10.96
2023-12-26T00:19:00,rvs,9.14
2023-12-26T00:20:00,rvs,10.54
2023-12-26T00:21:00,rvs,11.34
2023-12-26T00:22:00,rvs,12.27
2023-12-26T00:23:00,rvs,13.36
2023-12-26T00:24:00,rvs,19.13
2023-12-26T00:25:00,rvs,38.00
2023-12-26T00:26:00,rvs,15.79
2023-12-26T00:27:00,rvs,10.72
2023-12-26T00:28:00,rvs,13.32
2023-12-26T00:29:00,rvs,14.31
2023-12-26T00:30:00,rvs,14.34
2023-12-26T00:31:00,rvs,13.06
2023-12-26T00:32:00,rvs,13.25
2023-12-26T00:33:00,rvs,12.57
2023-12-26T00:34:00,rvs,13.60
2023-12-26T00:35:00,rvs,13.93
2023-12-26T00:36:00,rvs,13.08
2023-12-26T00:37:00,rvs,12.09
2023-12-26T00:38:00,rvs,12.39
2023-12-26T00:39:00,rvs,10.37
2023-12-26T00:40:00,rvs,25.69
2023-12-26T00:41:00,rvs,27.64
2023-12-26T00:42:00,rvs,27.90
2023-12-26T00:43:00,rvs,36.22
2023-12-26T00:44:00,rvs,27.65
2023-12-26T00:45:00,rvs,31.94
2023-12-26T00:46:00,rvs,32.17
2023-12-26T00:47:00,rvs,35.34
2023-12-26T00:48:00,rvs,34.81
2023-12-26T00:49:00,rvs,34.01
2023-12-26T00:50:00,rvs,34.73
2023-12-26T00:51:00,rvs,24.70
2023-12-26T00:52:00,rvs,27.77
2023-12-26T00:53:00,rvs,30.99
2023-12-26T00:54:00,rvs,28.53
2023-12-26T00:55:00,rvs,26.78
2023-12-26T00:56:00,rvs,23.62
2023-12-26T00:57:00,rvs,23.92
2023-12-26T00:58:00,rvs,25.45
2023-12-26T00:59:00,rvs,27.39
2023-12-26T01:00:00,rvs,21.91
2023-12-26T01:01:00,rvs,22.52
2023-12-26T01:02:00,rvs,16.80
2023-12-26T01:03:00,rvs,17.94
2023-12-26T01:04:00,rvs,17.07
2023-12-26T01:05:00,rvs,16.26
2023-12-26T01:06:00,rvs,7.51
2023-12-26T01:07:00,rvs,7.58
2023-12-26T01:08:00,rvs,7.50
2023-12-26T01:09:00,rvs,7.27
2023-12-26T01:10:00,rvs,8.53
2023-12-26T01:11:00,rvs,10.82
2023-12-26T01:12:00,rvs,15.04
2023-12-26T01:13:00,rvs,15.34
2023-12-26T01:14:00,rvs,18.73
2023-12-26T01:15:00,rvs,17.17
2023-12-26T01:16:00,rvs,37.67
2023-12-26T01:17:00,rvs,36.78
2023-12-26T01:18:00,rvs,36.91
2023-12-26T01:19:00,rvs,26.46
2023-12-26T01:20:00,rvs,24.49
2023-12-26T01:21:00,rvs,23.32
2023-12-26T01:22:00,rvs,22.76
2023-12-26T01:23:00,rvs,20.68
2023-12-26T01:24:00,rvs,22.02
2023-12-26T01:25:00,rvs,24.97
2023-12-26T01:26:00,rvs,19.90
2023-12-26T01:27:00,rvs,17.47
2023-12-26T01:28:00,rvs,17.64
2023-12-26T01:29:00,rvs,19.94
2023-12-26T01:30:00,rvs,14.48
2023-12-26T01:31:00,rvs,14.02
2023-12-26T01:32:00,rvs,14.12
2023-12-26T01:33:00,rvs,16.87
2023-12-26T01:34:00,rvs,18.48
2023-12-26T01:35:00,rvs,19.63
2023-12-26T01:36:00,rvs,21.51
2023-12-26T01:37:00,rvs,19.37
2023-12-26T01:38:00,rvs,20.96
2023-12-26T01:39:00,rvs,24.12
2023-12-26T01:40:00,rvs,22.88
2023-12-26T01:41:00,rvs,24.38
2023-12-26T01:42:00,rvs,21.64
2023-12-26T01:43:00,rvs,23.96
2023-12-26T01:44:00,rvs,25.07
2023-12-26T01:45:00,rvs,28.36
2023-12-26T01:46:00,rvs,28.81
2023-12-26T01:47:00,rvs,27.03
2023-12-26T01:48:00,rvs,28.51
2023-12-26T01:49:00,rvs,25.46
2023-12-26T01:50:00,rvs,27.69
2023-12-26T01:51:00,rvs,24.24
2023-12-26T01:52:00,rvs,24.76
2023-12-26T01:53:00,rvs,26.85
2023-12-26T01:54:00,rvs,27.04
2023-12-26T01:55:00,rvs,26.39
2023-12-26T01:56:00,rvs,27.51
2023-12-26T01:57:00,rvs,25.71
2023-12-26T01:58:00,rvs,18.48
2023-12-26T01:59:00,rvs,18.71
2023-12-26T02:00:00,rvs,22.38
2023-12-26T02:01:00,rvs,15.84
2023-12-26T02:02:00,rvs,18.19
2023-12-26T02:03:00,rvs,23.03
2023-12-26T02:04:00,rvs,26.55
2023-12-26T02:05:00,rvs,27.71
2023-12-26T02:06:00,rvs,46.04
2023-12-26T02:07:00,rvs,58.52
2023-12-26T02:08:00,rvs,63.40
2023-12-26T02:09:00,rvs,68.30
2023-12-26T02:10:00,rvs,54.95
2023-12-26T02:11:00,rvs,48.06
2023-12-26T02:12:00,rvs,69.70
2023-12-26T02:13:00,rvs,71.45
2023-12-26T02:14:00,rvs,70.46
2023-12-26T02:15:00,rvs,68.19
2023-12-26T02:16:00,rvs,46.51
2023-12-26T02:17:00,rvs,49.12
2023-12-26T02:18:00,rvs,51.99
2023-12-26T02:19:00,rvs,53.17
2023-12-26T02:20:00,rvs,41.38
2023-12-26T02:21:00,rvs,42.45
2023-12-26T02:22:00,rvs,45.60
2023-12-26T02:23:00,rvs,59.14
2023-12-26T02:24:00,rvs,60.21
2023-12-26T02:25:00,rvs,47.66
2023-12-26T02:26:00,rvs,43.29
2023-12-26T02:27:00,rvs,31.18
2023-12-26T02:28:00,rvs,32.65
2023-12-26T02:29:00,rvs,34.72
2023-12-26T02:30:00,rvs,33.87
2023-12-26T02:31:00,rvs,29.39
2023-12-26T02:32:00,rvs,31.03
2023-12-26T02:33:00,rvs,33.01
2023-12-26T02:34:00,rvs,37.00
2023-12-26T02:35:00,rvs,25.84
2023-12-26T02:36:00,rvs,27.11
2023-12-26T02:37:00,rvs,27.56
2023-12-26T02:38:00,rvs,27.83
2023-12-26T02:39:00,rvs,31.41
2023-12-26T02:40:00,rvs,28.76
2023-12-26T02:41:00,rvs,29.57
2023-12-26T02:42:00,rvs,34.06
2023-12-26T02:43:00,rvs,34.69
2023-12-26T02:44:00,rvs,24.91
2023-12-26T02:45:00,rvs,21.91
2023-12-26T02:46:00,rvs,17.66
2023-12-26T02:47:00,rvs,17.85
2023-12-26T02:48:00,rvs,17.99
2023-12-26T02:49:00,rvs,18.29
2023-12-26T02:50:00,rvs,17.16
2023-12-26T02:51:00,rvs,15.77
2023-12-26T02:52:00,rvs,14.20
2023-12-26T02:53:00,rvs,8.25
2023-12-26T02:54:00,rvs,8.60
2023-12-26T02:55:00,rvs,7.75
2023-12-26T02:56:00,rvs,7.61
2023-12-26T02:57:00,rvs,7.11
2023-12-26T02:58:00,rvs,10.41
2023-12-26T02:59:00,rvs,11.45
2023-12-26T03:00:00,rvs,12.26
2023-12-26T03:01:00,rvs,13.42
2023-12-26T03:02:00,rvs,16.97
2023-12-26T03:03:00,rvs,16.99
2023-12-26T03:04:00,rvs,17.85
2023-12-26T03:05:00,rvs,17.96
2023-12-26T03:06:00,rvs,18.59
2023-12-26T03:07:00,rvs,20.71
2023-12-26T03:08:00,rvs,21.90
2023-12-26T03:09:00,rvs,21.67
2023-12-26T03:10:00,rvs,19.83
2023-12-26T03:11:00,rvs,19.03
2023-12-26T03:12:00,rvs,18.50
2023-12-26T03:13:00,rvs,17.94
2023-12-26T03:14:00,rvs,17.15
2023-12-26T03:15:00,rvs,20.66
2023-12-26T03:16:00,rvs,21.84
2023-12-26T03:17:00,rvs,23.21
2023-12-26T03:18:00,rvs,22.10
2023-12-26T03:19:00,rvs,23.02
2023-12-26T03:20:00,rvs,23.63
2023-12-26T03:21:00,rvs,26.97
2023-12-26T03:22:00,rvs,46.59
2023-12-26T03:23:00,rvs,48.40
2023-12-26T03:24:00,rvs,49.75
2023-12-26T03:25:00,rvs,34.69
2023-12-26T03:26:00,rvs,17.71
2023-12-26T03:27:00,rvs,18.79
2023-12-26T03:28:00,rvs,17.87
2023-12-26T03:29:00,rvs,14.74
2023-12-26T03:30:00,rvs,17.53
2023-12-26T03:31:00,rvs,18.26
2023-12-26T03:32:00,rvs,18.25
2023-12-26T03:33:00,rvs,23.20
2023-12-26T03:34:00,rvs,17.75
2023-12-26T03:35:00,rvs,18.49
2023-12-26T03:36:00,rvs,21.48
2023-12-26T03:37:00,rvs,22.13
2023-12-26T03:38:00,rvs,36.14
2023-12-26T03:39:00,rvs,32.48
2023-12-26T03:40:00,rvs,28.19
2023-12-26T03:41:00,rvs,22.63
2023-12-26T03:42:00,rvs,27.99
2023-12-26T03:43:00,rvs,24.01
2023-12-26T03:44:00,rvs,29.37
2023-12-26T03:45:00,rvs,34.30
2023-12-26T03:46:00,rvs,35.69
2023-12-26T03:47:00,rvs,43.11
2023-12-26T03:48:00,rvs,31.10
2023-12-26T03:49:00,rvs,34.72
2023-12-26T03:50:00,rvs,35.61
2023-12-26T03:51:00,rvs,32.01
2023-12-26T03:52:00,rvs,31.98
2023-12-26T03:53:00,rvs,35.76
2023-12-26T03:54:00,rvs,33.90
2023-12-26T03:55:00,rvs,32.45
2023-12-26T03:56:00,rvs,27.30
2023-12-26T03:57:00,rvs,30.49
2023-12-26T03:58:00,rvs,31.55
2023-12-26T03:59:00,rvs,31.04
2023-12-26T04:00:00,rvs,29.59
2023-12-26T04:01:00,rvs,28.58
2023-12-26T04:02:00,rvs,20.28
2023-12-26T04:03:00,rvs,20.17
2023-12-26T04:04:00,rvs,20.31
2023-12-26T04:05:00,rvs,18.32
2023-12-26T04:06:00,rvs,18.24
2023-12-26T04:07:00,rvs,17.73
2023-12-26T04:08:00,rvs,10.84
2023-12-26T04:09:00,rvs,11.64
2023-12-26T04:10:00,rvs,13.41
2023-12-26T04:11:00,rvs,13.79
2023-12-26T04:12:00,rvs,12.81
2023-12-26T04:13:00,rvs,13.18
2023-12-26T04:14:00,rvs,12.91
2023-12-26T04:15:00,rvs,12.68
2023-12-26T04:16:00,rvs,15.03
2023-12-26T04:17:00,rvs,16.59
2023-12-26T04:18:00,rvs,20.68
2023-12-26T04:19:00,rvs,22.95
2023-12-26T04:20:00,rvs,24.58
2023-12-26T04:21:00,rvs,25.63
2023-12-26T04:22:00,rvs,26.12
2023-12-26T04:23:00,rvs,25.14
2023-12-26T04:24:00,rvs,25.87
2023-12-26T04:25:00,rvs,28.20
2023-12-26T04:26:00,rvs,28.15
2023-12-26T04:27:00,rvs,26.82
2023-12-26T04:28:00,rvs,22.66
2023-12-26T04:29:00,rvs,22.36
2023-12-26T04:30:00,rvs,22.12
2023-12-26T04:31:00,rvs,18.78
2023-12-26T04:32:00,rvs,18.47
2023-12-26T04:33:00,rvs,17.68
2023-12-26T04:34:00,rvs,20.98
2023-12-26T04:35:00,rvs,20.65
2023-12-26T04:36:00,rvs,23.13
2023-12-26T04:37:00,rvs,20.11
2023-12-26T04:38:00,rvs,17.94
2023-12-26T04:39:00,rvs,11.05
2023-12-26T04:40:00,rvs,18.26
2023-12-26T04:41:00,rvs,21.22
2023-12-26T04:42:00,rvs,23.85
2023-12-26T04:43:00,rvs,25.86
2023-12-26T04:44:00,rvs,26.21
2023-12-26T04:45:00,rvs,26.24
2023-12-26T04:46:00,rvs,21.85
2023-12-26T04:47:00,rvs,21.22
2023-12-26T04:48:00,rvs,20.05
2023-12-26T04:49:00,rvs,13.15
2023-12-26T04:50:00,rvs,13.26
2023-12-26T04:51:00,rvs,15.70
2023-12-26T04:52:00,rvs,19.92
2023-12-26T04:53:00,rvs,19.93
2023-12-26T04:54:00,rvs,22.32
2023-12-26T04:55:00,rvs,28.75
2023-12-26T04:56:00,rvs,28.60
2023-12-26T04:57:00,rvs,27.89
2023-12-26T04:58:00,rvs,29.32
2023-12-26T04:59:00,rvs,31.19
2023-12-26T05:00:00,rvs,30.19
2023-12-26T05:01:00,rvs,32.36
2023-12-26T05:02:00,rvs,30.99
2023-12-26T05:03:00,rvs,22.47
2023-12-26T05:04:00,rvs,24.35
2023-12-26T05:05:00,rvs,25.53
2023-12-26T05:06:00,rvs,27.44
2023-12-26T05:07:00,rvs,31.14
2023-12-26T05:08:00,rvs,27.60
2023-12-26T05:09:00,rvs,30.44
2023-12-26T05:10:00,rvs,31.59
2023-12-26T05:11:00,rvs,36.17
2023-12-26T05:12:00,rvs,37.01
2023-12-26T05:13:00,rvs,43.03
2023-12-26T05:14:00,rvs,39.15
2023-12-26T05:15:00,rvs,38.81
2023-12-26T05:16:00,rvs,44.12
2023-12-26T05:17:00,rvs,45.79
2023-12-26T05:18:00,rvs,48.83
2023-12-26T05:19:00,rvs,45.13
2023-12-26T05:20:00,rvs,37.57
2023-12-26T05:21:00,rvs,52.78
2023-12-26T05:22:00,rvs,57.89
2023-12-26T05:23:00,rvs,61.10
2023-12-26T05:24:00,rvs,55.44
2023-12-26T05:25:00,rvs,27.68
2023-12-26T05:26:00,rvs,17.72
2023-12-26T05:27:00,rvs,18.34
2023-12-26T05:28:00,rvs,18.02
2023-12-26T05:29:00,rvs,24.06
2023-12-26T05:30:00,rvs,25.74
2023-12-26T05:31:00,rvs,29.38
2023-12-26T05:32:00,rvs,28.25
2023-12-26T05:33:00,rvs,29.44
2023-12-26T05:34:00,rvs,26.34
2023-12-26T05:35:00,rvs,32.44
2023-12-26T05:36:00,rvs,34.28
2023-12-26T05:37:00,rvs,35.64
2023-12-26T05:38:00,rvs,39.24
2023-12-26T05:39:00,rvs,27.21
2023-12-26T05:40:00,rvs,25.68
2023-12-26T05:41:00,rvs,27.48
2023-12-26T05:42:00,rvs,27.78
2023-12-26T05:43:00,rvs,30.85
2023-12-26T05:44:00,rvs,41.49
2023-12-26T05:45:00,rvs,45.77
2023-12-26T05:46:00,rvs,46.49
2023-12-26T05:47:00,rvs,38.28
2023-12-26T05:48:00,rvs,18.03
2023-12-26T05:49:00,rvs,17.04
2023-12-26T05:50:00,rvs,16.41
2023-12-26T05:51:00,rvs,15.86
2023-12-26T05:52:00,rvs,18.37
2023-12-26T05:53:00,rvs,17.75
2023-12-26T05:54:00,rvs,20.01
2023-12-26T05:55:00,rvs,22.60
2023-12-26T05:56:00,rvs,24.08
2023-12-26T05:57:00,rvs,25.00
2023-12-26T05:58:00,rvs,21.27
2023-12-26T05:59:00,rvs,19.75
2023-12-26T06:00:00,rvs,33.15
2023-12-26T06:01:00,rvs,35.57
2023-12-26T06:02:00,rvs,35.62
2023-12-26T06:03:00,rvs,38.83
2023-12-26T06:04:00,rvs,28.49
2023-12-26T06:05:00,rvs,18.06
2023-12-26T06:06:00,rvs,17.64
2023-12-26T06:07:00,rvs,23.17
2023-12-26T06:08:00,rvs,23.94
2023-12-26T06:09:00,rvs,22.75
2023-12-26T06:10:00,rvs,22.27
2023-12-26T06:11:00,rvs,21.74
2023-12-26T06:12:00,rvs,19.65
2023-12-26T06:13:00,rvs,11.53
2023-12-26T06:14:00,rvs,10.60
2023-12-26T06:15:00,rvs,12.29
2023-12-26T06:16:00,rvs,14.26
2023-12-26T06:17:00,rvs,15.40
2023-12-26T06:18:00,rvs,17.14
2023-12-26T06:19:00,rvs,13.08
2023-12-26T06:20:00,rvs,23.55
2023-12-26T06:21:00,rvs,23.85
2023-12-26T06:22:00,rvs,28.31
2023-12-26T06:23:00,rvs,27.67
2023-12-26T06:24:00,rvs,27.92
2023-12-26T06:25:00,rvs,27.19
2023-12-26T06:26:00,rvs,24.53
2023-12-26T06:27:00,rvs,27.60
2023-12-26T06:28:00,rvs,22.71
2023-12-26T06:29:00,rvs,25.79
2023-12-26T06:30:00,rvs,26.33
2023-12-26T06:31:00,rvs,33.94
2023-12-26T06:32:00,rvs,34.59
2023-12-26T06:33:00,rvs,35.35
2023-12-26T06:34:00,rvs,33.79
2023-12-26T06:35:00,rvs,33.72
2023-12-26T06:36:00,rvs,34.14
2023-12-26T06:37:00,rvs,36.18
2023-12-26T06:38:00,rvs,49.88
2023-12-26T06:39:00,rvs,52.82
2023-12-26T06:40:00,rvs,50.75
2023-12-26T06:41:00,rvs,51.87
2023-12-26T06:42:00,rvs,23.77
2023-12-26T06:43:00,rvs,23.73
2023-12-26T06:44:00,rvs,26.38
2023-12-26T06:45:00,rvs,30.94
2023-12-26T06:46:00,rvs,22.04
2023-12-26T06:47:00,rvs,24.11
2023-12-26T06:48:00,rvs,25.51
2023-12-26T06:49:00,rvs,33.13
2023-12-26T06:50:00,rvs,32.87
2023-12-26T06:51:00,rvs,38.57
2023-12-26T06:52:00,rvs,37.87
2023-12-26T06:53:00,rvs,37.40
2023-12-26T06:54:00,rvs,33.37
2023-12-26T06:55:00,rvs,33.09
2023-12-26T06:56:00,rvs,33.88
2023-12-26T06:57:00,rvs,33.19
2023-12-26T06:58:00,rvs,31.52
2023-12-26T06:59:00,rvs,30.27
2023-12-26T07:00:00,rvs,14.68
2023-12-26T07:01:00,rvs,14.67
2023-12-26T07:02:00,rvs,11.79
2023-12-26T07:03:00,rvs,16.87
2023-12-26T07:04:00,rvs,20.74
2023-12-26T07:05:00,rvs,21.03
2023-12-26T07:06:00,rvs,22.38
2023-12-26T07:07:00,rvs,22.74
2023-12-26T07:08:00,rvs,21.15
2023-12-26T07:09:00,rvs,19.36
2023-12-26T07:10:00,rvs,17.83
2023-12-26T07:11:00,rvs,17.58
2023-12-26T07:12:00,rvs,11.99
2023-12-26T07:13:00,rvs,12.13
2023-12-26T07:14:00,rvs,12.93
2023-12-26T07:15:00,rvs,12.61
2023-12-26T07:16:00,rvs,12.63
2023-12-26T07:17:00,rvs,13.44
2023-12-26T07:18:00,rvs,6.99
2023-12-26T07:19:00,rvs,6.88
2023-12-26T07:20:00,rvs,6.89
2023-12-26T07:21:00,rvs,6.95
2023-12-26T07:22:00,rvs,7.02
2023-12-26T07:23:00,rvs,7.24
2023-12-26T07:24:00,rvs,6.88
2023-12-26T07:25:00,rvs,6.95
2023-12-26T07:26:00,rvs,10.99
2023-12-26T07:27:00,rvs,10.84
2023-12-26T07:28:00,rvs,11.42
2023-12-26T07:29:00,rvs,13.52
2023-12-26T07:30:00,rvs,15.33
2023-12-26T07:31:00,rvs,16.95
2023-12-26T07:32:00,rvs,18.61
2023-12-26T07:33:00,rvs,27.30
2023-12-26T07:34:00,rvs,39.69
2023-12-26T07:35:00,rvs,40.37
2023-12-26T07:36:00,rvs,40.65
2023-12-26T07:37:00,rvs,36.92
2023-12-26T07:38:00,rvs,36.61
2023-12-26T07:39:00,rvs,44.02
2023-12-26T07:40:00,rvs,45.92
2023-12-26T07:41:00,rvs,47.02
2023-12-26T07:42:00,rvs,48.05
2023-12-26T07:43:00,rvs,48.20
2023-12-26T07:44:00,rvs,50.91
2023-12-26T07:45:00,rvs,27.29
2023-12-26T07:46:00,rvs,13.89
2023-12-26T07:47:00,rvs,17.52
2023-12-26T07:48:00,rvs,20.92
2023-12-26T07:49:00,rvs,24.96
2023-12-26T07:50:00,rvs,24.47
2023-12-26T07:51:00,rvs,28.07
2023-12-26T07:52:00,rvs,30.83
2023-12-26T07:53:00,rvs,29.58
2023-12-26T07:54:00,rvs,38.22
2023-12-26T07:55:00,rvs,37.72
2023-12-26T07:56:00,rvs,33.95
2023-12-26T07:57:00,rvs,52.02
2023-12-26T07:58:00,rvs,57.61
2023-12-26T07:59:00,rvs,56.09
2023-12-26T08:00:00,rvs,57.86
2023-12-26T08:01:00,rvs,34.95
2023-12-26T08:02:00,rvs,36.42
2023-12-26T08:03:00,rvs,37.82
2023-12-26T08:04:00,rvs,27.59
2023-12-26T08:05:00,rvs,32.45
2023-12-26T08:06:00,rvs,31.62
2023-12-26T08:07:00,rvs,46.12
2023-12-26T08:08:00,rvs,45.79
2023-12-26T08:09:00,rvs,48.34
2023-12-26T08:10:00,rvs,50.32
2023-12-26T08:11:00,rvs,28.36
2023-12-26T08:12:00,rvs,28.86
2023-12-26T08:13:00,rvs,24.77
2023-12-26T08:14:00,rvs,26.74
2023-12-26T08:15:00,rvs,27.39
2023-12-26T08:16:00,rvs,29.64
2023-12-26T08:17:00,rvs,32.01
2023-12-26T08:18:00,rvs,31.75
2023-12-26T08:19:00,rvs,34.09
2023-12-26T08:20:00,rvs,33.91
2023-12-26T08:21:00,rvs,31.85
2023-12-26T08:22:00,rvs,27.66
2023-12-26T08:23:00,rvs,31.77
2023-12-26T08:24:00,rvs,46.28
2023-12-26T08:25:00,rvs,46.84
2023-12-26T08:26:00,rvs,44.93
2023-12-26T08:27:00,rvs,46.05
2023-12-26T08:28:00,rvs,34.27
2023-12-26T08:29:00,rvs,33.20
2023-12-26T08:30:00,rvs,32.08
2023-12-26T08:31:00,rvs,21.68
2023-12-26T08:32:00,rvs,22.18
2023-12-26T08:33:00,rvs,25.60
2023-12-26T08:34:00,rvs,24.83
2023-12-26T08:35:00,rvs,20.97
2023-12-26T08:36:00,rvs,11.23
2023-12-26T08:37:00,rvs,13.43
2023-12-26T08:38:00,rvs,13.29
2023-12-26T08:39:00,rvs,21.59
2023-12-26T08:40:00,rvs,21.12
2023-12-26T08:41:00,rvs,20.42
2023-12-26T08:42:00,rvs,16.09
2023-12-26T08:43:00,rvs,15.80
2023-12-26T08:44:00,rvs,13.47
2023-12-26T08:45:00,rvs,12.16
2023-12-26T08:46:00,rvs,12.40
2023-12-26T08:47:00,rvs,16.48
2023-12-26T08:48:00,rvs,19.87
2023-12-26T08:49:00,rvs,21.45
2023-12-26T08:50:00,rvs,22.95
2023-12-26T08:51:00,rvs,22.69
2023-12-26T08:52:00,rvs,23.73
2023-12-26T08:53:00,rvs,22.99
2023-12-26T08:54:00,rvs,24.77
2023-12-26T08:55:00,rvs,24.26
2023-12-26T08:56:00,rvs,27.88
2023-12-26T08:57:00,rvs,28.38
2023-12-26T08:58:00,rvs,28.37
2023-12-26T08:59:00,rvs,29.42
2023-12-26T09:00:00,rvs,32.53
2023-12-26T09:01:00,rvs,38.40
2023-12-26T09:02:00,rvs,38.07
2023-12-26T09:03:00,rvs,38.80
2023-12-26T09:04:00,rvs,38.30
2023-12-26T09:05:00,rvs,23.56
2023-12-26T09:06:00,rvs,24.38
2023-12-26T09:07:00,rvs,26.60
2023-12-26T09:08:00,rvs,28.73
2023-12-26T09:09:00,rvs,26.38
2023-12-26T09:10:00,rvs,28.41
2023-12-26T09:11:00,rvs,41.77
2023-12-26T09:12:00,rvs,42.01
2023-12-26T09:13:00,rvs,34.40
2023-12-26T09:14:00,rvs,20.95
2023-12-26T09:15:00,rvs,13.00
2023-12-26T09:16:00,rvs,17.53
2023-12-26T09:17:00,rvs,20.01
2023-12-26T09:18:00,rvs,19.02
2023-12-26T09:19:00,rvs,24.29
2023-12-26T09:20:00,rvs,30.59
2023-12-26T09:21:00,rvs,37.43
2023-12-26T09:22:00,rvs,38.95
2023-12-26T09:23:00,rvs,29.96
2023-12-26T09:24:00,rvs,43.03
2023-12-26T09:25:00,rvs,42.21
2023-12-26T09:26:00,rvs,43.03
2023-12-26T09:27:00,rvs,41.55
2023-12-26T09:28:00,rvs,33.20
2023-12-26T09:29:00,rvs,32.89
2023-12-26T09:30:00,rvs,36.94
2023-12-26T09:31:00,rvs,37.31
2023-12-26T09:32:00,rvs,37.91
2023-12-26T09:33:00,rvs,34.35
2023-12-26T09:34:00,rvs,37.09
2023-12-26T09:35:00,rvs,36.35
2023-12-26T09:36:00,rvs,25.12
2023-12-26T09:37:00,rvs,24.94
2023-12-26T09:38:00,rvs,24.92
2023-12-26T09:39:00,rvs,26.28
2023-12-26T09:40:00,rvs,24.42
2023-12-26T09:41:00,rvs,24.41
2023-12-26T09:42:00,rvs,18.39
2023-12-26T09:43:00,rvs,17.16
2023-12-26T09:44:00,rvs,16.79
2023-12-26T09:45:00,rvs,17.48
2023-12-26T09:46:00,rvs,16.01
2023-12-26T09:47:00,rvs,16.09
2023-12-26T09:48:00,rvs,11.76
2023-12-26T09:49:00,rvs,11.96
2023-12-26T09:50:00,rvs,12.27
2023-12-26T09:51:00,rvs,11.99
2023-12-26T09:52:00,rvs,11.19
2023-12-26T09:53:00,rvs,10.75
2023-12-26T09:54:00,rvs,12.65
2023-12-26T09:55:00,rvs,15.01
2023-12-26T09:56:00,rvs,16.27
2023-12-26T09:57:00,rvs,17.39
2023-12-26T09:58:00,rvs,18.96
2023-12-26T09:59:00,rvs,19.38
2023-12-26T10:00:00,rvs,20.06
2023-12-26T10:01:00,rvs,18.57
2023-12-26T10:02:00,rvs,13.56
2023-12-26T10:03:00,rvs,12.96
2023-12-26T10:04:00,rvs,16.02
2023-12-26T10:05:00,rvs,17.92
2023-12-26T10:06:00,rvs,18.39
2023-12-26T10:07:00,rvs,20.02
2023-12-26T10:08:00,rvs,19.63
2023-12-26T10:09:00,rvs,17.13
2023-12-26T10:10:00,rvs,17.68
2023-12-26T10:11:00,rvs,21.36
2023-12-26T10:12:00,rvs,21.14
2023-12-26T10:13:00,rvs,24.38
2023-12-26T10:14:00,rvs,27.09
2023-12-26T10:15:00,rvs,26.30
2023-12-26T10:16:00,rvs,18.83
2023-12-26T10:17:00,rvs,18.38
2023-12-26T10:18:00,rvs,18.40
2023-12-26T10:19:00,rvs,17.47
2023-12-26T10:20:00,rvs,12.56
2023-12-26T10:21:00,rvs,13.88
2023-12-26T10:22:00,rvs,13.49
2023-12-26T10:23:00,rvs,13.34
2023-12-26T10:24:00,rvs,7.11
2023-12-26T10:25:00,rvs,7.43
2023-12-26T10:26:00,rvs,7.13
2023-12-26T10:27:00,rvs,7.72
2023-12-26T10:28:00,rvs,10.28
2023-12-26T10:29:00,rvs,11.58
2023-12-26T10:30:00,rvs,11.84
2023-12-26T10:31:00,rvs,12.67
2023-12-26T10:32:00,rvs,16.22
2023-12-26T10:33:00,rvs,18.95
2023-12-26T10:34:00,rvs,17.95
2023-12-26T10:35:00,rvs,18.14
2023-12-26T10:36:00,rvs,19.71
2023-12-26T10:37:00,rvs,18.16
2023-12-26T10:38:00,rvs,21.55
2023-12-26T10:39:00,rvs,22.29
2023-12-26T10:40:00,rvs,24.57
2023-12-26T10:41:00,rvs,29.81
2023-12-26T10:42:00,rvs,25.74
2023-12-26T10:43:00,rvs,29.83
2023-12-26T10:44:00,rvs,32.79
2023-12-26T10:45:00,rvs,33.17
2023-12-26T10:46:00,rvs,32.26
2023-12-26T10:47:00,rvs,44.63
2023-12-26T10:48:00,rvs,43.74
2023-12-26T10:49:00,rvs,42.81
2023-12-26T10:50:00,rvs,28.73
2023-12-26T10:51:00,rvs,22.74
2023-12-26T10:52:00,rvs,14.51
2023-12-26T10:53:00,rvs,9.99
2023-12-26T10:54:00,rvs,10.79
2023-12-26T10:55:00,rvs,14.92
2023-12-26T10:56:00,rvs,17.01
2023-12-26T10:57:00,rvs,21.07
2023-12-26T10:58:00,rvs,24.81
2023-12-26T10:59:00,rvs,25.13
2023-12-26T11:00:00,rvs,25.23
2023-12-26T11:01:00,rvs,27.92
2023-12-26T11:02:00,rvs,27.31
2023-12-26T11:03:00,rvs,32.26
2023-12-26T11:04:00,rvs,35.24
2023-12-26T11:05:00,rvs,38.36
2023-12-26T11:06:00,rvs,43.79
2023-12-26T11:07:00,rvs,45.61
2023-12-26T11:08:00,rvs,50.27
2023-12-26T11:09:00,rvs,44.37
2023-12-26T11:10:00,rvs,47.25
2023-12-26T11:11:00,rvs,46.73
2023-12-26T11:12:00,rvs,46.14
2023-12-26T11:13:00,rvs,42.17
2023-12-26T11:14:00,rvs,37.92
2023-12-26T11:15:00,rvs,43.03
2023-12-26T11:16:00,rvs,42.49
2023-12-26T11:17:00,rvs,42.91
2023-12-26T11:18:00,rvs,44.15
2023-12-26T11:19:00,rvs,38.84
2023-12-26T11:20:00,rvs,37.05
2023-12-26T11:21:00,rvs,29.02
2023-12-26T11:22:00,rvs,18.13
2023-12-26T11:23:00,rvs,19.02
2023-12-26T11:24:00,rvs,19.37
2023-12-26T11:25:00,rvs,18.96
2023-12-26T11:26:00,rvs,21.10
2023-12-26T11:27:00,rvs,20.49
2023-12-26T11:28:00,rvs,10.60
2023-12-26T11:29:00,rvs,12.61
2023-12-26T11:30:00,rvs,14.00
2023-12-26T11:31:00,rvs,13.35
2023-12-26T11:32:00,rvs,13.32
2023-12-26T11:33:00,rvs,14.67
2023-12-26T11:34:00,rvs,16.52
2023-12-26T11:35:00,rvs,18.11
2023-12-26T11:36:00,rvs,13.67
2023-12-26T11:37:00,rvs,11.82
2023-12-26T11:38:00,rvs,11.61
2023-12-26T11:39:00,rvs,11.79
2023-12-26T11:40:00,rvs,12.10
2023-12-26T11:41:00,rvs,12.26
2023-12-26T11:42:00,rvs,13.07
2023-12-26T11:43:00,rvs,7.94
2023-12-26T11:44:00,rvs,10.46
2023-12-26T11:45:00,rvs,11.40
2023-12-26T11:46:00,rvs,16.88
2023-12-26T11:47:00,rvs,19.28
2023-12-26T11:48:00,rvs,17.68
2023-12-26T11:49:00,rvs,16.93
2023-12-26T11:50:00,rvs,17.42
2023-12-26T11:51:00,rvs,17.51
2023-12-26T11:52:00,rvs,17.47
2023-12-26T11:53:00,rvs,15.67
2023-12-26T11:54:00,rvs,16.19
2023-12-26T11:55:00,rvs,17.03
2023-12-26T11:56:00,rvs,12.82
2023-12-26T11:57:00,rvs,12.76
2023-12-26T11:58:00,rvs,12.32
2023-12-26T11:59:00,rvs,12.50
2023-12-26T12:00:00,rvs,12.17
2023-12-26T12:01:00,rvs,12.31
2023-12-26T12:02:00,rvs,6.42
2023-12-26T12:03:00,rvs,6.39
2023-12-26T12:04:00,rvs,6.25
2023-12-26T12:05:00,rvs,6.10
2023-12-26T12:06:00,rvs,6.10
2023-12-26T12:07:00,rvs,6.08
2023-12-26T12:08:00,rvs,6.05
2023-12-26T12:09:00,rvs,6.07
2023-12-26T12:10:00,rvs,9.67
2023-12-26T12:11:00,rvs,11.01
2023-12-26T12:12:00,rvs,11.84
2023-12-26T12:13:00,rvs,13.67
2023-12-26T12:14:00,rvs,15.26
2023-12-26T12:15:00,rvs,13.61
2023-12-26T12:16:00,rvs,12.39
2023-12-26T12:17:00,rvs,12.63
2023-12-26T12:18:00,rvs,15.96
2023-12-26T12:19:00,rvs,18.16
2023-12-26T12:20:00,rvs,19.77
2023-12-26T12:21:00,rvs,20.11
2023-12-26T12:22:00,rvs,19.72
2023-12-26T12:23:00,rvs,21.59
2023-12-26T12:24:00,rvs,22.23
2023-12-26T12:25:00,rvs,37.12
2023-12-26T12:26:00,rvs,43.66
2023-12-26T12:27:00,rvs,51.19
2023-12-26T12:28:00,rvs,51.52
2023-12-26T12:29:00,rvs,31.17
2023-12-26T12:30:00,rvs,27.35
2023-12-26T12:31:00,rvs,23.07
2023-12-26T12:32:00,rvs,25.21
2023-12-26T12:33:00,rvs,28.49
2023-12-26T12:34:00,rvs,29.51
2023-12-26T12:35:00,rvs,35.05
2023-12-26T12:36:00,rvs,34.94
2023-12-26T12:37:00,rvs,38.31
2023-12-26T12:38:00,rvs,25.80
2023-12-26T12:39:00,rvs,18.41
2023-12-26T12:40:00,rvs,18.48
2023-12-26T12:41:00,rvs,18.18
2023-12-26T12:42:00,rvs,18.00
2023-12-26T12:43:00,rvs,18.60
2023-12-26T12:44:00,rvs,13.56
2023-12-26T12:45:00,rvs,14.22
2023-12-26T12:46:00,rvs,15.09
2023-12-26T12:47:00,rvs,17.28
2023-12-26T12:48:00,rvs,17.94
2023-12-26T12:49:00,rvs,17.89
2023-12-26T12:50:00,rvs,16.29
2023-12-26T12:51:00,rvs,14.95
2023-12-26T12:52:00,rvs,15.54
2023-12-26T12:53:00,rvs,6.57
2023-12-26T12:54:00,rvs,7.02
2023-12-26T12:55:00,rvs,6.84
2023-12-26T12:56:00,rvs,6.64
2023-12-26T12:57:00,rvs,6.69
2023-12-26T12:58:00,rvs,7.54
2023-12-26T12:59:00,rvs,13.89
2023-12-26T13:00:00,rvs,15.80
2023-12-26T13:01:00,rvs,17.58
2023-12-26T13:02:00,rvs,19.99
2023-12-26T13:03:00,rvs,18.06
2023-12-26T13:04:00,rvs,16.75
2023-12-26T13:05:00,rvs,18.91
2023-12-26T13:06:00,rvs,20.70
2023-12-26T13:07:00,rvs,20.32
2023-12-26T13:08:00,rvs,19.16
2023-12-26T13:09:00,rvs,19.41
2023-12-26T13:10:00,rvs,35.03
2023-12-26T13:11:00,rvs,35.46
2023-12-26T13:12:00,rvs,38.35
2023-12-26T13:13:00,rvs,24.80
2023-12-26T13:14:00,rvs,21.49
2023-12-26T13:15:00,rvs,21.77
2023-12-26T13:16:00,rvs,22.31
2023-12-26T13:17:00,rvs,22.03
2023-12-26T13:18:00,rvs,21.48
2023-12-26T13:19:00,rvs,13.92
2023-12-26T13:20:00,rvs,14.26